TimeEDT,TemperatureF,Dew PointF,Humidity,Sea Level PressureIn,VisibilityMPH,Wind Direction,Wind SpeedMPH,Gust SpeedMPH,PrecipitationIn,Events,Conditions,WindDirDegrees,DateUTC
12:56 AM,61.0,54.0,78,30.09,10.0,Calm,Calm,-,N/A,,Overcast,0,2013-09-27 04:56:00
1:56 AM,60.1,55.9,86,30.09,10.0,ESE,3.5,-,N/A,,Overcast,120,2013-09-27 05:56:00
2:56 AM,61.0,54.0,78,30.10,10.0,Calm,Calm,-,N/A,,Overcast,0,2013-09-27 06:56:00
3:56 AM,61.0,55.0,81,30.10,10.0,East,4.6,-,N/A,,Mostly Cloudy,80,2013-09-27 07:56:00
5:56 AM,60.1,55.0,83,30.14,8.0,East,5.8,-,N/A,,Mostly Cloudy,90,2013-09-27 09:56:00
6:06 AM,60.8,55.4,82,30.14,7.0,Calm,Calm,-,N/A,,Mostly Cloudy,0,2013-09-27 10:06:00
6:56 AM,60.1,55.0,83,30.16,7.0,East,3.5,-,N/A,,Overcast,80,2013-09-27 10:56:00
7:56 AM,60.1,55.9,86,30.18,7.0,ENE,4.6,-,N/A,,Overcast,60,2013-09-27 11:56:00
8:56 AM,60.1,54.0,80,30.20,8.0,NE,3.5,-,N/A,,Overcast,50,2013-09-27 12:56:00
9:37 AM,60.8,53.6,77,30.21,9.0,East,3.5,-,N/A,,Overcast,80,2013-09-27 13:37:00
9:56 AM,63.0,55.0,75,30.21,9.0,East,3.5,-,N/A,,Mostly Cloudy,90,2013-09-27 13:56:00
10:32 AM,62.6,55.4,77,30.22,9.0,Calm,Calm,-,N/A,,Overcast,0,2013-09-27 14:32:00
10:56 AM,64.0,54.0,70,30.22,10.0,NE,5.8,-,N/A,,Mostly Cloudy,50,2013-09-27 14:56:00
11:56 AM,69.1,55.9,63,30.22,10.0,South,4.6,-,N/A,,Scattered Clouds,170,2013-09-27 15:56:00
12:56 PM,69.1,55.0,61,30.20,10.0,WSW,3.5,-,N/A,,Scattered Clouds,250,2013-09-27 16:56:00
1:56 PM,71.1,51.1,49,30.19,10.0,Variable,3.5,-,N/A,,Scattered Clouds,0,2013-09-27 17:56:00
2:56 PM,73.0,48.9,42,30.17,10.0,Variable,5.8,-,N/A,,Partly Cloudy,0,2013-09-27 18:56:00
3:56 PM,73.0,46.9,39,30.17,10.0,NE,8.1,-,N/A,,Scattered Clouds,50,2013-09-27 19:56:00
4:56 PM,72.0,46.0,40,30.16,10.0,Calm,Calm,-,N/A,,Scattered Clouds,0,2013-09-27 20:56:00
5:56 PM,71.1,46.9,42,30.17,10.0,East,8.1,-,N/A,,Scattered Clouds,80,2013-09-27 21:56:00
6:56 PM,64.9,48.9,56,30.18,10.0,ESE,8.1,-,N/A,,Clear,120,2013-09-27 22:56:00
7:56 PM,61.0,50.0,67,30.19,10.0,Calm,Calm,-,N/A,,Clear,0,2013-09-27 23:56:00
8:56 PM,57.9,50.0,75,30.21,10.0,Calm,Calm,-,N/A,,Clear,0,2013-09-28 00:56:00
9:56 PM,60.1,48.9,67,30.23,10.0,Calm,Calm,-,N/A,,Clear,0,2013-09-28 01:56:00
10:56 PM,57.9,50.0,75,30.25,10.0,East,3.5,-,N/A,,Clear,100,2013-09-28 02:56:00
11:56 PM,57.0,51.1,81,30.26,10.0,Calm,Calm,-,N/A,,Scattered Clouds,0,2013-09-28 03:56:00